STARLINK-1850 (47138 NORAD) Tracking and Keplerian Element Data
This shows tracking and keplerian element data for the satellite.
Feedback or suggestion? Click here.
Element | Value |
Catalog | 47138 |
Name | STARLINK-1850 |
Epoch Orbit | 182 |
Epoch Day | 20.91667824 |
Epoch Year | 2021 |
RAAN | 74.1498 |
Inclination | 53.056 |
Eccentricity | 0.000203 |
Argument of Perigee | 356.981 |
Mean Anonmoly | 89.9043 |
Mean Motion | 15.62725349 |
Decay Rate | 0.00044454 |
L1 | 1 47138U 20088S 21020.91667824 .00044454 00000-0 48919-3 0 9994 |
L2 | 2 47138 53.0560 74.1498 0002030 356.9810 89.9043 15.62725349 1822 |
Live tracking and technical data element details for STARLINK-1850 (NORAD 47138). STARLINK-1850 can be tracked NOW for your location showing map with azimuth and elevation plus other details from your city location.
Track the satellite on the map from your city or location and see movement details for azimuth, elevation, latitude, longitude, range, height, and movement on the map or in text.
IsCatalogInMostPopularTable: catalog: 47138, numindb: 16
Update: records affected: 1
GetName: 47138 STARLINK-1850
Hit Count: updated at: Fri, 22 Jan 2021 16:45:03 GMT